Tracking 28799 objects as of 18-Apr-2024
HD Live streaming from Space Station
objects crossing your sky now

SL-16 DEB

Track SL-16 DEB now!
10-day predictions


NORAD ID: 22356
Int'l Code: 1992-093AV
Perigee: 573.0 km
Apogee: 604.9 km
Inclination: 70.7 °
Period: 96.3 minutes
Semi major axis: 6959 km
RCS: 0.0093 m2 (small)
Launch date: December 25, 1992
Source: Commonwealth of Independent States (former USSR) (CIS)
Launch site: TYURATAM MISSILE AND SPACE COMPLEX (TTMTR)

Note: This is SATELLITE DEBRIS
Your satellite tracking list
Your tracking list is empty




NASA's NSSDC Master Catalog

Two Line Element Set (TLE):
1 22356U 92093AV  24108.88708422  .00148022  00000-0  13114-1 0  9993
2 22356  70.6616 309.2309 0022935 276.3438 144.4377 14.95189164626323
Source of the keplerian elements: AFSPC